Location: Mascot Post Office (historical)
(40.2645°N, 99.5462°W)
Time: 02:47:02
(UTC+00:00)

Cosmos 1238 Rocket - Pass Details

Date: 14 July 2020
Orbit: 374 x 1030 km, 82.9° (Epoch: 14 August)

Event Time Altitude Azimuth Distance (km) Brightness Sun altitude
Exits shadow 07:25:35 76° 316° (NW) 790 3.5 -27.4°
Drops below altitude 10° 07:30:03 10° 4° (N) 2,106 6.8 -27.2°
Sets 07:32:07 0° 6° (N) 2,922 7.8 -27.1°
